This is the latest recevied weather packets stored in our database for station/object K5SVV. If no packets are shown the sender has not sent any weather packets the latest 10 day(s).
| Time | Temp. | Humidity | Pressure | Rain* | Wind** | Luminosity | Snow |
|---|---|---|---|---|---|---|---|
| 1777676383 | 15.56° C | 71% | 1015 hPa | 0 mm | - | 91 W/m² | - |
| 1777676081 | 15.56° C | 68% | 1014.9 hPa | 0 mm | - | 95 W/m² | - |
| 1777675776 | 15.56° C | 68% | 1014.9 hPa | 0 mm | - | 117 W/m² | - |
| 1777675474 | 15.56° C | 69% | 1014.8 hPa | 0 mm | - | 112 W/m² | - |
| 1777675171 | 15.56° C | 70% | 1014.5 hPa | 0 mm | - | 100 W/m² | - |
| 1777674867 | 15.56° C | 70% | 1014.5 hPa | 0 mm | - | 97 W/m² | - |
| 1777674563 | 15.56° C | 68% | 1014.1 hPa | 0 mm | - | 98 W/m² | - |
| 1777674261 | 15.56° C | 68% | 1014.2 hPa | 0 mm | - | 97 W/m² | - |
| 1777673957 | 15.56° C | 69% | 1014.5 hPa | 0 mm | - | 81 W/m² | - |
| 1777673654 | 15.56° C | 70% | 1014 hPa | 0 mm | - | 84 W/m² | - |
| 1777673352 | 16.11° C | 68% | 1014.1 hPa | 0 mm | - | 115 W/m² | - |
| 1777673049 | 16.11° C | 71% | 1014.2 hPa | 0 mm | - | 164 W/m² | - |
| 1777672745 | 15.56° C | 71% | 1014.1 hPa | 0 mm | - | 197 W/m² | - |
| 1777672442 | 15.56° C | 70% | 1014.1 hPa | 0 mm | - | 180 W/m² | - |
| 1777672137 | 15.56° C | 72% | 1014 hPa | 0 mm | - | 155 W/m² | - |
| 1777671832 | 15.56° C | 71% | 1013.9 hPa | 0 mm | - | 173 W/m² | - |
| 1777671528 | 15.56° C | 70% | 1013.9 hPa | 0 mm | - | 211 W/m² | - |
| 1777671225 | 15.56° C | 72% | 1013.9 hPa | 0 mm | - | 232 W/m² | - |
| 1777670921 | 15.56° C | 70% | 1014.6 hPa | 0 mm | - | 216 W/m² | - |
| 1777670618 | 15.56° C | 71% | 1014.2 hPa | 0 mm | - | 258 W/m² | - |
| 1777670314 | 15.56° C | 71% | 1014.1 hPa | 0 mm | - | 260 W/m² | - |
| 1777670012 | 15.56° C | 70% | 1014.2 hPa | 0 mm | - | 308 W/m² | - |
| 1777669709 | 15.56° C | 69% | 1014.4 hPa | 0 mm | - | 284 W/m² | - |
| 1777669405 | 15.56° C | 69% | 1014.6 hPa | 0 mm | - | 320 W/m² | - |
| 1777669096 | 15.56° C | 69% | 1014.6 hPa | 0 mm | - | 271 W/m² | - |
* Rain latest hour (hover to see other rain measurements)
** Current wind speed in m/s (hover to see current wind gust speed)